Sharm El Sheikhintl, Egypt

7:02 AM EET on February 13, 2016 (GMT +0200)
Sharm El Sheikh International

Weather History for HESH - March, 2013

Change the Weather History Date:

Thursday, March 21, 2013

  Actual Average Record
Temperature  
Mean Temperature 82 °F -  
Max Temperature 95 °F - - ()
Min Temperature 68 °F - - ()
Cooling Degree Days 16    
Growing Degree Days 32 (Base 50)    
Moisture  
Dew Point 43 °F    
Average Humidity 34    
Maximum Humidity 64    
Minimum Humidity 11    
Precipitation  
Precipitation 0.00 in - - ()
Sea Level Pressure  
Sea Level Pressure 29.87 in    
Wind  
Wind Speed 10 mph ()    
Max Wind Speed 17 mph    
Max Gust Speed -    
T = Trace of Precipitation, MM = Missing Value Source: Averaged Metar Reports

Daily Weather History Graph

Daily Weather History Graph

Search for Another Location

Airport or City:

Trip Planner

Search our weather history database for the weather conditions in past years. The results will help you decide how hot, cold, wet, or windy it might be!

Date:

Astronomy

Mar. 21, 2013 Rise Set
Actual Time 5:45 AM EET 5:54 PM EET
Civil Twilight 5:21 AM EET 6:17 PM EET
Nautical Twilight 4:54 AM EET 6:45 PM EET
Astronomical Twilight 4:27 AM EET 7:12 PM EET
Moon 12:29 PM EET (3/21) 1:27 AM EET (3/21)
Length of Visible Light 12h 55m
Length of Day
12h 09m
Waxing Gibbous, 66% of the Moon is Illuminated
Mar 21
Waxing Gibbous
Mar 27
Full
Apr 3
Last Quarter
Apr 10
New
Apr 18
First Quarter

Hourly Weather History & Observations

Time (EET) Temp. Dew Point Humidity Pressure Visibility Wind Dir Wind Speed Gust Speed Precip Events Conditions
12:00 AM 71.6 °F 48.2 °F 43% 29.89 in - North 16.1 mph - N/A   Clear
1:00 AM 71.6 °F 50.0 °F 46% 29.89 in - North 12.7 mph - N/A   Clear
2:00 AM 69.8 °F 51.8 °F 53% 29.89 in - North 15.0 mph - N/A   Clear
3:00 AM 69.8 °F 53.6 °F 56% 29.86 in - North 15.0 mph - N/A   Clear
4:00 AM 68.0 °F 53.6 °F 60% 29.86 in - North 15.0 mph - N/A   Clear
5:00 AM 68.0 °F 53.6 °F 60% 29.86 in - North 13.8 mph - N/A   Clear
6:00 AM 68.0 °F 55.4 °F 64% 29.89 in - North 12.7 mph - N/A   Clear
7:00 AM 71.6 °F 57.2 °F 60% 29.89 in - North 12.7 mph - N/A   Clear
8:00 AM 73.4 °F 55.4 °F 53% 29.92 in - North 17.3 mph - N/A   Clear
9:00 AM 77.0 °F 53.6 °F 44% 29.95 in - North 17.3 mph - N/A   Clear
10:00 AM 80.6 °F 51.8 °F 37% 29.92 in - North 15.0 mph - N/A   Clear
11:00 AM 84.2 °F 51.8 °F 33% 29.92 in - NNE 11.5 mph - N/A   Clear
12:00 PM 86.0 °F 48.2 °F 27% 29.89 in - NNE 10.4 mph - N/A   Clear
1:00 PM 89.6 °F 46.4 °F 22% 29.86 in - NE 6.9 mph - N/A   Clear
2:00 PM 91.4 °F 39.2 °F 16% 29.86 in - ENE 5.8 mph - N/A   Clear
3:00 PM 95.0 °F 37.4 °F 13% 29.83 in - East 3.5 mph - N/A   Clear
4:00 PM 93.2 °F 32.0 °F 11% 29.83 in - Variable 3.5 mph - N/A   Clear
5:00 PM 87.8 °F 30.2 °F 13% 29.83 in - Variable 3.5 mph - N/A   Clear
6:00 PM 82.4 °F 28.4 °F 14% 29.83 in - Calm Calm - N/A   Clear
7:00 PM 78.8 °F 32.0 °F 18% 29.83 in - WSW 2.3 mph - N/A   Clear
8:00 PM 77.0 °F 30.2 °F 18% 29.83 in - WSW 3.5 mph - N/A   Clear
9:00 PM 75.2 °F 28.4 °F 18% 29.86 in - West 3.5 mph - N/A   Clear
10:00 PM 75.2 °F 26.6 °F 17% 29.83 in - Calm Calm - N/A   Clear
11:00 PM 68.0 °F 26.6 °F 21% 29.83 in - Calm Calm - N/A   Clear